Tracking 29892 objects as of 21-Nov-2024
HD Live streaming from Space Station
objects crossing your sky now

STARLINK-4277

Track STARLINK-4277 now!
10-day predictions
STARLINK-4277 is classified as:


NORAD ID: 53009
Int'l Code: 2022-076Z
Perigee: 546.0 km
Apogee: 547.7 km
Inclination: 53.2 °
Period: 95.4 minutes
Semi major axis: 6917 km
RCS: Unknown
Launch date: July 7, 2022
Source: United States (US)
Launch site: AIR FORCE EASTERN TEST RANGE (AFETR)
Your satellite tracking list
Your tracking list is empty




NASA's NSSDC Master Catalog

Two Line Element Set (TLE):
1 53009U 22076Z   24325.62483060  .00004814  00000-0  32031-3 0  9998
2 53009  53.2181  52.2775 0001283  74.1978 285.9156 15.08846649131414
Source of the keplerian elements: AFSPC